| time (UTC) | temp F | wind direction | speed MPH | gust MPH | rain 1hr in | rain 24hr in | rain mn in | humidity % | barometer mb |
| 20260505115703 | 75 | 136 | 6.0 | 12.0 | 0.00 | 0.00 | 0.00 | 51 | 1004.0 |
| 20260505115203 | 75 | 132 | 6.0 | 12.0 | 0.00 | 0.00 | 0.00 | 52 | 1004.0 |
| 20260505113704 | 75 | 140 | 6.0 | 9.0 | 0.00 | 0.00 | 0.00 | 52 | 1004.1 |
| 20260505112703 | 75 | 112 | 3.0 | 10.0 | 0.00 | 0.00 | 0.00 | 51 | 1004.3 |
| 20260505112203 | 75 | 200 | 4.0 | 10.0 | 0.00 | 0.00 | 0.00 | 53 | 1004.4 |
| 20260505111703 | 74 | 147 | 6.0 | 10.0 | 0.00 | 0.00 | 0.00 | 53 | 1004.4 |
| 20260505110703 | 75 | 154 | 4.0 | 9.0 | 0.00 | 0.00 | 0.00 | 51 | 1004.5 |
| 20260505110203 | 75 | 141 | 3.0 | 8.0 | 0.00 | 0.00 | 0.00 | 53 | 1004.5 |
| 20260505102204 | 73 | 152 | 4.0 | 9.0 | 0.00 | 0.00 | 0.00 | 53 | 1004.9 |
| 20260505101704 | 73 | 155 | 3.0 | 12.0 | 0.00 | 0.00 | 0.00 | 53 | 1005.0 |
| 20260505101204 | 73 | 119 | 3.0 | 12.0 | 0.00 | 0.00 | 0.00 | 52 | 1005.0 |
| 20260505100704 | 74 | 150 | 4.0 | 10.0 | 0.00 | 0.00 | 0.00 | 54 | 1005.0 |
| 20260505095703 | 72 | 110 | 5.0 | 12.0 | 0.00 | 0.00 | 0.00 | 55 | 1005.0 |
| 20260505094204 | 72 | 111 | 5.0 | 8.0 | 0.00 | 0.00 | 0.00 | 53 | 1005.1 |
| 20260505093704 | 72 | 185 | 3.0 | 8.0 | 0.00 | 0.00 | 0.00 | 53 | 1005.1 |
| 20260505093204 | 72 | 163 | 4.0 | 8.0 | 0.00 | 0.00 | 0.00 | 54 | 1005.2 |
| 20260505092204 | 73 | 126 | 3.0 | 9.0 | 0.00 | 0.00 | 0.00 | 56 | 1005.2 |
| 20260505091704 | 72 | 174 | 3.0 | 9.0 | 0.00 | 0.00 | 0.00 | 57 | 1005.3 |
| 20260505085704 | 69 | 146 | 3.0 | 7.0 | 0.00 | 0.00 | 0.00 | 56 | 1005.5 |
| 20260505084703 | 70 | 207 | 2.0 | 3.0 | 0.00 | 0.00 | 0.00 | 56 | 1005.5 |
| 20260505084203 | 69 | 135 | 2.0 | 5.0 | 0.00 | 0.00 | 0.00 | 57 | 1005.6 |
| 20260505083704 | 69 | 156 | 2.0 | 6.0 | 0.00 | 0.00 | 0.00 | 56 | 1005.6 |
| 20260505081704 | 68 | 235 | 3.0 | 6.0 | 0.00 | 0.00 | 0.00 | 58 | 1005.8 |
| 20260505081203 | 67 | 138 | 4.0 | 5.0 | 0.00 | 0.00 | 0.00 | 58 | 1005.8 |
| 20260505080704 | 67 | 162 | 2.0 | 7.0 | 0.00 | 0.00 | 0.00 | 57 | 1005.9 |
| 20260505075704 | 66 | 143 | 3.0 | 7.0 | 0.00 | 0.00 | 0.00 | 58 | 1005.9 |
| 20260505074704 | 66 | 141 | 3.0 | 7.0 | 0.00 | 0.00 | 0.00 | 60 | 1006.0 |
| 20260505073703 | 64 | 179 | 2.0 | 7.0 | 0.00 | 0.00 | 0.00 | 60 | 1006.1 |
| 20260505072704 | 64 | 98 | 2.0 | 6.0 | 0.00 | 0.00 | 0.00 | 60 | 1006.2 |
| 20260505071204 | 63 | 126 | 3.0 | 3.0 | 0.00 | 0.00 | 0.00 | 61 | 1006.4 |
| 20260505070704 | 63 | 130 | 2.0 | 3.0 | 0.00 | 0.00 | 0.00 | 62 | 1006.4 |
| 20260505070204 | 62 | 152 | 2.0 | 6.0 | 0.00 | 0.00 | 0.00 | 64 | 1006.5 |
| 20260505065703 | 61 | 100 | 2.0 | 7.0 | 0.00 | 0.00 | 0.00 | 64 | 1006.5 |
| 20260505065204 | 61 | 109 | 3.0 | 7.0 | 0.00 | 0.00 | 0.00 | 64 | 1006.5 |
| 20260505064705 | 60 | 148 | 4.0 | 7.0 | 0.00 | 0.00 | 0.00 | 66 | 1006.5 |
| 20260505063704 | 60 | 96 | 4.0 | 6.0 | 0.00 | 0.00 | 0.00 | 65 | 1006.7 |
| 20260505063203 | 60 | 91 | 3.0 | 6.0 | 0.00 | 0.00 | 0.00 | 65 | 1006.7 |
| 20260505062704 | 59 | 141 | 2.0 | 6.0 | 0.00 | 0.00 | 0.00 | 67 | 1006.7 |
| 20260505061703 | 59 | 124 | 2.0 | 6.0 | 0.00 | 0.00 | 0.00 | 66 | 1006.8 |
| 20260505061203 | 58 | 97 | 2.0 | 6.0 | 0.00 | 0.00 | 0.00 | 67 | 1006.8 |
| 20260505060704 | 57 | 109 | 3.0 | 6.0 | 0.00 | 0.00 | 0.00 | 67 | 1006.8 |
| 20260505055704 | 56 | 126 | 1.0 | 3.0 | 0.00 | 0.00 | 0.00 | 70 | 1006.8 |
| 20260505055204 | 56 | 132 | 1.0 | 3.0 | 0.00 | 0.00 | 0.00 | 71 | 1006.8 |
| 20260505054203 | 55 | 260 | 0.0 | 2.0 | 0.00 | 0.00 | 0.00 | 72 | 1006.9 |
| 20260505053704 | 55 | 260 | 1.0 | 2.0 | 0.00 | 0.00 | 0.00 | 72 | 1006.9 |
| 20260505053204 | 55 | 260 | 1.0 | 3.0 | 0.00 | 0.00 | 0.00 | 72 | 1006.9 |
| 20260505051704 | 54 | 260 | 1.0 | 2.0 | 0.00 | 0.00 | 0.00 | 74 | 1006.9 |
| 20260505051204 | 54 | 260 | 0.0 | 2.0 | 0.00 | 0.00 | 0.00 | 73 | 1007.0 |
| 20260505050203 | 54 | 260 | 1.0 | 2.0 | 0.00 | 0.00 | 0.00 | 75 | 1007.1 |
| 20260505040704 | 52 | 260 | 0.0 | 3.0 | 0.00 | 0.00 | 0.00 | 75 | 1007.0 |
| 20260505040204 | 52 | 260 | 2.0 | 3.0 | 0.00 | 0.00 | 0.00 | 74 | 1007.0 |
| 20260505035203 | 53 | 189 | 1.0 | 2.0 | 0.00 | 0.00 | 0.00 | 72 | 1006.9 |
| 20260505034704 | 53 | 201 | 1.0 | 3.0 | 0.00 | 0.00 | 0.00 | 73 | 1006.8 |
| 20260505033704 | 54 | 208 | 1.0 | 3.0 | 0.00 | 0.00 | 0.00 | 71 | 1006.8 |
| 20260505033204 | 54 | 248 | 2.0 | 6.0 | 0.00 | 0.00 | 0.00 | 69 | 1006.7 |
| 20260505032204 | 54 | 88 | 3.0 | 8.0 | 0.00 | 0.00 | 0.00 | 69 | 1006.5 |
| 20260505031703 | 54 | 85 | 3.0 | 9.0 | 0.00 | 0.00 | 0.00 | 70 | 1006.6 |
| 20260505024204 | 55 | 50 | 4.0 | 10.0 | 0.00 | 0.00 | 0.00 | 70 | 1006.8 |
| 20260505023704 | 54 | 59 | 5.0 | 7.0 | 0.00 | 0.00 | 0.00 | 71 | 1006.8 |
| 20260505023204 | 54 | 51 | 3.0 | 7.0 | 0.00 | 0.00 | 0.00 | 72 | 1006.9 |
| 20260505022704 | 54 | 51 | 3.0 | 6.0 | 0.00 | 0.00 | 0.00 | 73 | 1007.0 |
| 20260505021205 | 53 | 42 | 2.0 | 5.0 | 0.00 | 0.00 | 0.00 | 74 | 1007.2 |
| 20260505015205 | 53 | 78 | 1.0 | 2.0 | 0.00 | 0.00 | 0.00 | 76 | 1007.3 |
| 20260505014704 | 53 | 78 | 1.0 | 2.0 | 0.00 | 0.00 | 0.00 | 76 | 1007.4 |
| 20260505014204 | 53 | 78 | 1.0 | 2.0 | 0.00 | 0.00 | 0.00 | 75 | 1007.5 |
| 20260505013204 | 53 | 78 | 1.0 | 2.0 | 0.00 | 0.00 | 0.00 | 74 | 1007.5 |
| 20260505012705 | 54 | 78 | 0.0 | 3.0 | 0.00 | 0.00 | 0.00 | 73 | 1007.5 |
| 20260505011705 | 53 | 82 | 1.0 | 3.0 | 0.00 | 0.00 | 0.00 | 73 | 1007.7 |
| 20260505010704 | 53 | 70 | 1.0 | 3.0 | 0.00 | 0.00 | 0.00 | 74 | 1007.8 |
| 20260505010205 | 53 | 65 | 1.0 | 3.0 | 0.00 | 0.00 | 0.00 | 73 | 1007.9 |
| 20260505005704 | 53 | 56 | 2.0 | 3.0 | 0.00 | 0.00 | 0.00 | 73 | 1007.9 |
| 20260505005203 | 53 | 44 | 2.0 | 5.0 | 0.00 | 0.00 | 0.00 | 73 | 1007.9 |
| 20260505004704 | 53 | 58 | 3.0 | 5.0 | 0.00 | 0.00 | 0.00 | 73 | 1008.0 |
| 20260505003704 | 53 | 45 | 2.0 | 3.0 | 0.00 | 0.00 | 0.00 | 73 | 1008.2 |
| 20260505003204 | 53 | 26 | 1.0 | 5.0 | 0.00 | 0.00 | 0.00 | 73 | 1008.3 |
| 20260505002204 | 53 | 59 | 2.0 | 5.0 | 0.00 | 0.00 | 0.00 | 75 | 1008.5 |
| 20260505001204 | 52 | 49 | 2.0 | 3.0 | 0.00 | 0.00 | 0.00 | 75 | 1008.7 |
| 20260505000204 | 52 | 350 | 1.0 | 2.0 | 0.00 | 0.00 | 0.00 | 75 | 1008.8 |
| 20260504235204 | 53 | 350 | 1.0 | 3.0 | 0.00 | 0.00 | 0.00 | 73 | 1008.8 |
| 20260504233704 | 55 | 23 | 1.0 | 3.0 | 0.00 | 0.00 | 0.00 | 69 | 1008.9 |
| 20260504233204 | 55 | 23 | 1.0 | 3.0 | 0.00 | 0.00 | 0.00 | 69 | 1008.8 |
| 20260504231205 | 55 | 53 | 2.0 | 3.0 | 0.00 | 0.00 | 0.00 | 71 | 1009.0 |
| 20260504225205 | 57 | 300 | 0.0 | 3.0 | 0.00 | 0.00 | 0.00 | 66 | 1009.2 |
| 20260504224704 | 59 | 301 | 2.0 | 3.0 | 0.00 | 0.00 | 0.00 | 62 | 1009.3 |
| 20260504221704 | 62 | 26 | 1.0 | 7.0 | 0.00 | 0.00 | 0.00 | 56 | 1009.2 |
| 20260504215704 | 62 | 109 | 2.0 | 5.0 | 0.00 | 0.00 | 0.00 | 56 | 1009.4 |
| 20260504214204 | 62 | 90 | 2.0 | 7.0 | 0.00 | 0.00 | 0.00 | 55 | 1009.4 |
| 20260504213704 | 62 | 103 | 2.0 | 7.0 | 0.00 | 0.00 | 0.00 | 54 | 1009.3 |
| 20260504212204 | 63 | 79 | 3.0 | 14.0 | 0.00 | 0.00 | 0.00 | 54 | 1009.3 |
| 20260504211704 | 63 | 94 | 3.0 | 14.0 | 0.00 | 0.00 | 0.00 | 53 | 1009.4 |
| 20260504211205 | 63 | 86 | 5.0 | 14.0 | 0.00 | 0.00 | 0.00 | 52 | 1009.4 |
| 20260504204702 | 63 | 97 | 6.0 | 12.0 | 0.00 | 0.00 | 0.00 | 52 | 1009.5 |
| 20260504204202 | 63 | 96 | 5.0 | 12.0 | 0.00 | 0.00 | 0.00 | 52 | 1009.4 |
| 20260504202703 | 64 | 102 | 6.0 | 9.0 | 0.00 | 0.00 | 0.00 | 52 | 1009.5 |
| 20260504201203 | 64 | 108 | 6.0 | 12.0 | 0.00 | 0.00 | 0.00 | 52 | 1009.5 |
| 20260504200703 | 64 | 116 | 6.0 | 12.0 | 0.00 | 0.00 | 0.00 | 52 | 1009.6 |
| 20260504192702 | 64 | 115 | 6.0 | 10.0 | 0.00 | 0.00 | 0.00 | 55 | 1009.8 |
| 20260504191702 | 65 | 100 | 5.0 | 10.0 | 0.00 | 0.00 | 0.00 | 55 | 1009.7 |
| 20260504190703 | 65 | 108 | 5.0 | 12.0 | 0.00 | 0.00 | 0.00 | 55 | 1009.6 |
| 20260504190203 | 65 | 114 | 5.0 | 10.0 | 0.00 | 0.00 | 0.00 | 55 | 1009.7 |
| 20260504185703 | 65 | 116 | 5.0 | 10.0 | 0.00 | 0.00 | 0.00 | 55 | 1009.7 |
| 20260504185203 | 66 | 103 | 6.0 | 10.0 | 0.00 | 0.00 | 0.00 | 55 | 1009.6 |
| 20260504184202 | 66 | 123 | 5.0 | 10.0 | 0.00 | 0.00 | 0.00 | 55 | 1009.5 |
| 20260504183203 | 66 | 121 | 5.0 | 10.0 | 0.00 | 0.00 | 0.00 | 55 | 1009.3 |
| 20260504182702 | 67 | 129 | 5.0 | 10.0 | 0.00 | 0.00 | 0.00 | 56 | 1009.3 |
| 20260504182203 | 67 | 116 | 5.0 | 12.0 | 0.00 | 0.00 | 0.00 | 55 | 1009.3 |
| 20260504181703 | 67 | 111 | 6.0 | 12.0 | 0.00 | 0.00 | 0.00 | 55 | 1009.4 |
| 20260504180202 | 68 | 129 | 6.0 | 9.0 | 0.00 | 0.00 | 0.00 | 57 | 1009.3 |
| 20260504174702 | 68 | 96 | 5.0 | 8.0 | 0.00 | 0.00 | 0.00 | 59 | 1009.3 |
| 20260504174202 | 69 | 100 | 3.0 | 7.0 | 0.00 | 0.00 | 0.00 | 59 | 1009.4 |
| 20260504173703 | 69 | 93 | 2.0 | 7.0 | 0.00 | 0.00 | 0.00 | 58 | 1009.4 |
| 20260504172702 | 69 | 111 | 2.0 | 6.0 | 0.00 | 0.00 | 0.00 | 58 | 1009.3 |
| 20260504171703 | 70 | 93 | 3.0 | 6.0 | 0.00 | 0.00 | 0.00 | 56 | 1009.5 |
| 20260504171202 | 70 | 124 | 2.0 | 5.0 | 0.00 | 0.00 | 0.00 | 56 | 1009.5 |
| 20260504170203 | 71 | 124 | 3.0 | 6.0 | 0.00 | 0.00 | 0.00 | 55 | 1009.5 |
| 20260504150703 | 74 | 138 | 3.0 | 10.0 | 0.00 | 0.00 | 0.00 | 48 | 1010.0 |
| 20260504141202 | 75 | 125 | 4.0 | 9.0 | 0.00 | 0.00 | 0.00 | 49 | 1010.4 |
| 20260504140702 | 75 | 120 | 4.0 | 8.0 | 0.00 | 0.00 | 0.00 | 50 | 1010.5 |
| 20260504130203 | 74 | 77 | 2.0 | 7.0 | 0.00 | 0.00 | 0.00 | 53 | 1011.2 |